Regional Weather Roundup
Issued by NWS

Home | Current Version | Previous Version | Graphics & Text | Print | Product List | Glossary Off
Versions: 1 2 3 4 5 6 7 8 9 10 11 12 13 14 15 16 17 18 19 20 21 22 23 24 25 26 27 28 29 30 31 32 33 34 35 36 37 38 39 40 41 42 43 44 45 46 47 48 49 50

000
ASUS43 KMKX 082311
RWRWI

WISCONSIN REGIONAL WEATHER ROUNDUP
NATIONAL WEATHER SERVICE MILWAUKEE/SULLIVAN WI
500 PM CST MON FEB 08 2016

NOTE: "FAIR" INDICATES FEW OR NO CLOUDS BELOW 12,000 FEET WITH NO
SIGNIFICANT WEATHER AND/OR OBSTRUCTIONS TO VISIBILITY.

WIZ001-002-006>008-014>016-023>028-090000-
NORTHWEST WISCONSIN

CITY           SKY/WX    TMP DP  RH WIND       PRES   REMARKS
SUPERIOR ARPT  CLOUDY    13   2  63 NW12G18   29.97R WCI  -1
ASHLAND        CLOUDY    14   7  73 NW6       29.89R WCI   5
HAYWARD        LGT SNOW  12   5  73 NW9       29.87S VSB 3/4 WCI   0
SIREN          CLOUDY    13   5  68 N13       29.93R WCI  -1
CUMBERLAND     LGT SNOW  12   7  79 NW15      29.88S WCI  -4
RICE LAKE      LGT SNOW  13   8  78 NW8       29.89F WCI   2
CHETEK         LGT SNOW  13   7  78 NW5       29.88S WCI   5
LADYSMITH      LGT SNOW  14   9  79 NW14      29.86R WCI  -1
EAU CLAIRE     LGT SNOW  14   6  70 NW10      29.89R WCI   1
MENOMONIE      LGT SNOW  15   7  70 W10       29.91S WCI   3
NEW RICHMOND   CLOUDY    14   6  71 NW16G22   29.93R WCI  -2
OSCEOLA        LGT SNOW  14  10  81 NW12      29.97S VSB 1   WCI   1
$$

WIZ003>005-009-010-017-018-090000-
NORTH CENTRAL WISCONSIN

CITY           SKY/WX    TMP DP  RH WIND       PRES   REMARKS
MANITOWISH WTR LGT SNOW  12   8  82 NW13G22   29.76R WCI  -3
ARBOR VITAE    LGT SNOW  17  12  80 NW13G20   29.75R WCI   3
WOODRUFF       LGT SNOW  17  12  80 NW13G20   29.75R WCI   3
RHINELANDER    FLURRIES  16   8  71 NW7       29.74R WCI   6
EAGLE RIVER    LGT SNOW  15   8  72 NW16      29.73R WCI   0
LAND O LAKES   LGT SNOW  15  10  81 NW12G21   29.74R WCI   2
PHILLIPS       LGT SNOW  13   8  80 N10       29.79R WCI   0
TOMAHAWK       LGT SNOW  17  11  80 NW9       29.76R WCI   5
MEDFORD        LGT SNOW  14  10  85 NW12G17   29.77R WCI   0
MERRILL        LGT SNOW  18  15  85 NW9       29.76R VSB 3/4 WCI   7
$$

WIZ029-030-035-036-043>047-090000-
CENTRAL WISCONSIN

CITY           SKY/WX    TMP DP  RH WIND       PRES   REMARKS
WAUSAU         LGT SNOW  21  15  78 NW12      29.74R WCI   9
MOSINEE        NOT AVBL
MARSHFIELD     LGT SNOW  15   8  73 NW20      29.78R WCI  -2
STEVENS POINT  CLOUDY    20  11  69 NW9G18    29.75R WCI   9
WAUPACA        CLOUDY    28  21  74 W6        29.73R WCI  21
WAUTOMA        CLOUDY    22  13  68 NW14G26   29.77R WCI   9
WISC RAPIDS    LGT SNOW  18  10  71 NW13      29.80R WCI   5
CAMP DOUGLAS   FLURRIES  18  12  79 NW18      29.81R WCI   2
$$

WIZ011>013-019>022-031-037>040-048>050-090000-
NORTHEAST WISCONSIN

CITY           SKY/WX    TMP DP  RH WIND       PRES   REMARKS
ANTIGO         LGT SNOW  18  15  88 NW13G20   29.71R VSB 1   WCI   5
SHAWANO        CLOUDY    30  20  65 N8        29.72R WCI  22
OCONTO         CLOUDY    25  22  89 N9        29.72R WCI  15
STURGEON BAY   CLOUDY    25  18  74 N18       29.71R WCI  11
GREEN BAY      FLURRIES  27  23  85 NW8       29.71R WCI  19
MANITOWOC      LGT SNOW  28  24  85 NW20      29.70R FOG     WCI  15
APPLETON       LGT SNOW  27  19  74 NW12      29.69R WCI  16
CLINTONVILLE   CLOUDY    28  19  69 NW12      29.71R WCI  18
OSHKOSH        LGT SNOW  27  20  75 NW14      29.71R WCI  16
$$

WIZ032>034-041-042-053>061-090000-
SOUTHWEST WISCONSIN

CITY           SKY/WX    TMP DP  RH WIND       PRES   REMARKS
LA CROSSE      FLURRIES  16   6  65 NW17      29.89S WCI   0
SPARTA         FLURRIES  16   9  71 NW14G20   29.87R WCI   2
VIROQUA        CLOUDY    14   8  76 NW18      29.82R WCI  -3
BOSCOBEL       CLOUDY    21   9  59 NW13      29.86R WCI   9
PRAIRIE DU CHI MIX PCPN  17   7  63 NW14      29.88R WCI   3
PLATTEVILLE    CLOUDY    21  14  73 NW13G18   29.81R WCI   9
$$

WIZ056-057-062-063-064-067-068-090000-
SOUTH CENTRAL WISCONSIN

CITY           SKY/WX    TMP DP  RH WIND       PRES   REMARKS
REEDSBURG      CLOUDY    20  11  68 NW13      29.80R WCI   7
BARABOO/DELLS  CLOUDY    20  11  67 NW16      29.77R WCI   6
LONE ROCK      CLOUDY    21  10  62 NW13G21   29.82R WCI   9
MINERAL POINT  CLOUDY    23  14  68 NW13G18   29.78R WCI  11
MADISON        FLURRIES  21  13  71 NW15G22   29.76R WCI   8
MIDDLETON      CLOUDY    23  15  72 NW10G17   29.77R WCI  12
WATERTOWN      CLOUDY    23  17  78 NW14      29.73R WCI  11
MONROE         CLOUDY    23  16  74 NW15G22   29.75R WCI  10
JANESVILLE     CLOUDY    25  18  74 NW13      29.75R WCI  13
$$

WIZ051-052-058>065-066-070>072-090000-
SOUTHEAST WISCONSIN

CITY           SKY/WX    TMP DP  RH WIND       PRES   REMARKS
MILWAUKEE      LGT SNOW  25  22  88 W10       29.70R VSB 3/4 WCI  15
WAUKESHA       CLOUDY    23  18  80 W16       29.71R WCI  10
MILWAUKEE/TIMM LGT SNOW  27  19  74 NW16      29.70R WCI  14
RACINE         MIX PCPN  27  19  72 NW15      29.71R WCI  15
BURLINGTON     CLOUDY    24  17  77 NW15      29.72R WCI  11
KENOSHA        CLOUDY    26  19  74 NW15      29.70R WCI  14
FOND DU LAC    CLOUDY    27  19  72 NW12      29.71R WCI  17
SHEBOYGAN      FLURRIES  28  24  85 NW8       29.68R WCI  20
WEST BEND      LGT SNOW  27  21  80 W9G16     29.69R WCI  17
JUNEAU         CLOUDY    23  17  77 W9        29.73R WCI  13
$$

LSZ147-162-090000-
LAKE SUPERIOR

STATION/POSITION TIME  TEMP    WIND        PRES    WAVE
                       AIR SEA DIR/SP/G            HT/PER
                 (UTC) (F)     (DEG/KT/KT) (MB)    (FT/S)
DEVILS ISLAND    2300   15     330/ 19/ 21 1013.3R
PORT WING        2200   17     310/ 16/ 21 1013.2R
SAXON HARBOR     2200   18                 1011.5
$$

LMZ867-665-643>646-090000-
LAKE MICHIGAN

STATION/POSITION TIME  TEMP    WIND        PRES    WAVE
                       AIR SEA DIR/SP/G            HT/PER
                 (UTC) (F)     (DEG/KT/KT) (MB)    (FT/S)
CHAMBERS ISLAND  2200   25     310/ 16/ 18 1005.8R
NORTHPORT PIER   2200   27     350/ 15/ 21 1005.4R
ALGOMA LAKESHORE 2211          330/ 16/ 21   N/A
KEWAUNEE LAKESHO 2200   28     330/  9/ 15 1004.1R
SHEBOYGAN LAKESH 2300   29     330/ 13/ 16 1006.2R
PORT WASHINGTON  2240   28     300/ 11/ 18 1006.1R
MILWAUKEE LAKESH 2210   27     290/ 12/ 15   N/A
KENOSHA   LAKESH 2300   27     300/ 13/ 21 1006.1R
$$

TC  - TEMPERATURE IN CELSIUS
VSB - VISIBILITY IN STATUTE MILES
WCI - WIND CHILL INDEX
HX  - HEAT INDEX




USA.gov is the U.S. government's official web portal to all federal, state and local government web resources and services.